Location: Unspecified
(51.2667°N, 0.0000°E)
Time: 15:20:38
(UTC+00:00)

OTV 5 (USA 277) - Visible Passes

Search period start: 16 June 2019 00:00
Search period end: 26 June 2019 00:00
Orbit: 310 x 325 km, 54.5° (Epoch: 08 May)

Date Brightness Start Highest point End Pass type
(mag) Time Alt. Az. Time Alt. Az. Time Alt. Az.
16 Jun ? 01:12:17 21° WSW 01:13:58 84° NNW 01:16:45 10° ENE visible
16 Jun ? 02:45:53 10° WNW 02:48:32 39° N 02:51:10 10° ENE visible
16 Jun ? 23:54:57 33° ESE 23:54:57 33° ESE 23:57:04 10° ENE visible
17 Jun ? 01:26:03 10° W 01:28:47 53° NNW 01:31:30 10° ENE visible
18 Jun ? 00:08:19 39° SW 00:09:09 73° SSE 00:11:55 10° ENE visible
18 Jun ? 01:40:58 10° W 01:43:38 41° N 01:46:17 10° ENE visible
18 Jun ? 22:50:36 21° ESE 22:50:36 21° ESE 22:52:08 10° E visible
19 Jun ? 00:21:25 12° W 00:23:55 65° NNW 00:26:41 10° ENE visible
19 Jun ? 01:55:52 10° WNW 01:58:31 39° N 02:01:09 10° ENE visible
19 Jun ? 23:03:08 27° SW 23:04:21 52° SSE 23:07:04 10° ENE visible
20 Jun ? 00:36:03 10° W 00:38:45 45° N 00:41:27 10° ENE visible
20 Jun ? 02:10:41 10° WNW 02:13:23 45° N 02:16:04 10° E visible
20 Jun ? 21:43:01 10° S 21:45:02 18° SE 21:47:03 10° E visible
20 Jun ? 23:16:17 10° WSW 23:19:04 83° NNW 23:21:51 10° ENE visible
21 Jun ? 00:50:58 10° WNW 00:53:37 39° N 00:56:16 10° ENE visible
21 Jun ? 02:25:27 10° WNW 02:28:13 64° NNE 02:30:58 10° ESE visible
21 Jun ? 21:57:00 10° SW 21:59:35 36° SSE 22:02:11 10° ENE visible
21 Jun ? 23:31:08 10° W 23:33:52 52° NNW 23:36:36 10° ENE visible
22 Jun ? 01:05:51 10° WNW 01:08:30 41° N 01:11:10 10° E visible
22 Jun ? 02:40:13 10° WNW 02:42:59 73° SSW 02:45:43 10° ESE visible
22 Jun ? 22:11:29 10° WSW 22:14:15 74° SSE 22:17:01 10° ENE visible
22 Jun ? 23:46:04 10° W 23:48:43 41° N 23:51:23 10° ENE visible
23 Jun ? 01:20:38 10° WNW 01:23:21 52° NNE 01:26:04 10° E visible
23 Jun ? 02:55:03 10° WNW 02:57:39 36° SSW 03:00:13 10° SE visible
23 Jun ? 22:26:15 10° WSW 22:29:01 64° NNW 22:31:46 10° ENE visible
24 Jun ? 00:00:58 10° WNW 00:03:37 39° N 00:06:15 10° ENE visible
24 Jun ? 01:35:23 10° WNW 01:38:09 83° NNE 01:40:55 10° ESE visible
24 Jun ? 21:06:44 10° SW 21:09:26 52° SSE 21:12:10 10° ENE visible
24 Jun ? 22:41:09 10° W 22:43:50 45° N 22:46:32 10° ENE visible
25 Jun ? 00:15:47 10° WNW 00:18:29 45° N 00:21:11 10° E visible
25 Jun ? 01:50:10 10° WNW 01:52:53 51° SSW 01:55:34 10° SE visible
25 Jun ? 21:21:23 10° WSW 21:24:10 82° NNW 21:26:57 10° ENE visible
25 Jun ? 22:56:04 10° WNW 22:58:43 39° N 23:01:22 10° ENE visible
